Location: Christian Reformed Church
(43.0975°N, 93.8113°W)
Time: 21:03:03
(UTC+00:00)

Cosmos 2266 Rocket - Pass Details

Date: 13 December 2025
Orbit: 933 x 1007 km, 82.9° (Epoch: 12 January)

Event Time Altitude Azimuth Distance (km) Brightness Sun altitude
Rises 23:40:34 0° 349° (N) 3,643 6.9 -10.6°
Reaches altitude 10° 23:43:05 10° 348° (NNW) 2,683 6.2 -11.0°
Maximum altitude 23:49:10 70° 266° (W) 997 4.3 -12.1°
Drops below altitude 10° 23:55:08 10° 184° (S) 2,635 6.6 -13.1°
Sets 23:57:35 0° 182° (S) 3,572 7.2 -13.5°
